| time (UTC) | temp C | wind direction | speed KPH | gust KPH | rain 1hr cm | rain 24hr cm | rain mn cm | humidity % | barometer mb |
| 20260510071536 | 20 | 150 | 4.8 | 9.7 | 0.00 | 0.03 | 0.00 | 84 | 1010.6 |
| 20260510070037 | 20 | 146 | 4.8 | 8.0 | 0.00 | 0.03 | 0.00 | 83 | 1010.8 |
| 20260510064531 | 20 | 181 | 4.8 | 8.0 | 0.00 | 0.03 | 0.00 | 83 | 1010.9 |
| 20260510063037 | 20 | 171 | 4.8 | 8.0 | 0.00 | 0.03 | 0.00 | 82 | 1011.0 |
| 20260510061535 | 20 | 143 | 4.8 | 8.0 | 0.00 | 0.03 | 0.00 | 83 | 1011.0 |
| 20260510060040 | 20 | 174 | 4.8 | 8.0 | 0.00 | 0.03 | 0.00 | 84 | 1011.0 |
| 20260510054535 | 20 | 138 | 4.8 | 8.0 | 0.00 | 0.03 | 0.00 | 82 | 1011.0 |
| 20260510053038 | 21 | 143 | 8.0 | 9.7 | 0.00 | 0.03 | 0.00 | 81 | 1011.0 |
| 20260510051536 | 21 | 168 | 6.4 | 11.3 | 0.00 | 0.03 | 0.00 | 78 | 1011.1 |
| 20260510050037 | 22 | 143 | 9.7 | 14.5 | 0.00 | 0.03 | 0.00 | 78 | 1011.0 |
| 20260510044536 | 21 | 119 | 9.7 | 12.9 | 0.00 | 0.03 | 0.03 | 79 | 1011.0 |
| 20260510043035 | 22 | 127 | 6.4 | 9.7 | 0.00 | 0.03 | 0.03 | 78 | 1011.1 |
| 20260510041546 | 22 | 110 | 4.8 | 9.7 | 0.00 | 0.03 | 0.03 | 77 | 1011.2 |
| 20260510040037 | 22 | 88 | 4.8 | 8.0 | 0.00 | 0.03 | 0.03 | 75 | 1011.2 |
| 20260510034534 | 22 | 91 | 4.8 | 9.7 | 0.00 | 0.03 | 0.03 | 75 | 1011.0 |
| 20260510033039 | 22 | 120 | 4.8 | 8.0 | 0.00 | 0.03 | 0.03 | 76 | 1010.9 |
| 20260510031534 | 21 | 131 | 1.6 | 4.8 | 0.00 | 0.03 | 0.03 | 78 | 1010.7 |
| 20260510030038 | 22 | 143 | 1.6 | 1.6 | 0.00 | 0.03 | 0.03 | 75 | 1010.7 |
| 20260510024537 | 22 | 112 | 1.6 | 3.2 | 0.00 | 0.03 | 0.03 | 76 | 1010.5 |
| 20260510023035 | 22 | 0 | 0.0 | 3.2 | 0.00 | 0.03 | 0.03 | 76 | 1010.2 |
| 20260510021537 | 23 | 128 | 1.6 | 3.2 | 0.00 | 0.03 | 0.03 | 70 | 1010.0 |
| 20260510020036 | 25 | 94 | 1.6 | 3.2 | 0.00 | 0.03 | 0.03 | 60 | 1009.8 |
| 20260510014538 | 25 | 0 | 0.0 | 0.0 | 0.00 | 0.03 | 0.03 | 61 | 1009.6 |
| 20260510013040 | 26 | 0 | 0.0 | 0.0 | 0.00 | 0.03 | 0.03 | 63 | 1009.3 |
| 20260510011535 | 28 | 0 | 0.0 | 0.0 | 0.00 | 0.03 | 0.03 | 53 | 1009.2 |
| 20260510010032 | 31 | 0 | 0.0 | 0.0 | 0.00 | 0.03 | 0.03 | 49 | 1009.1 |
| 20260510004534 | 33 | 0 | 0.0 | 0.0 | 0.00 | 0.03 | 0.03 | 43 | 1009.1 |
| 20260510003046 | 33 | 0 | 0.0 | 0.0 | 0.00 | 0.03 | 0.03 | 40 | 1009.0 |
| 20260510001541 | 33 | 214 | 0.0 | 3.2 | 0.00 | 0.03 | 0.03 | 39 | 1009.1 |
| 20260510000043 | 32 | 219 | 3.2 | 6.4 | 0.00 | 0.03 | 0.03 | 39 | 1009.2 |
| 20260509234539 | 32 | 288 | 3.2 | 9.7 | 0.00 | 0.03 | 0.03 | 40 | 1009.1 |
| 20260509233034 | 33 | 298 | 3.2 | 8.0 | 0.00 | 0.03 | 0.03 | 39 | 1009.2 |
| 20260509231531 | 32 | 143 | 1.6 | 11.3 | 0.00 | 0.03 | 0.03 | 41 | 1009.2 |
| 20260509230036 | 32 | 200 | 6.4 | 11.3 | 0.00 | 0.03 | 0.03 | 42 | 1009.1 |
| 20260509224535 | 31 | 214 | 4.8 | 16.1 | 0.00 | 0.03 | 0.03 | 41 | 1009.2 |
| 20260509223035 | 31 | 277 | 6.4 | 11.3 | 0.00 | 0.03 | 0.03 | 45 | 1009.1 |
| 20260509221533 | 31 | 284 | 4.8 | 24.1 | 0.00 | 0.03 | 0.03 | 44 | 1009.2 |
| 20260509220054 | 31 | 197 | 4.8 | 9.7 | 0.00 | 0.03 | 0.03 | 50 | 1009.2 |
| 20260509214540 | 31 | 194 | 4.8 | 11.3 | 0.00 | 0.03 | 0.03 | 48 | 1009.3 |
| 20260509213039 | 30 | 193 | 6.4 | 14.5 | 0.00 | 0.03 | 0.03 | 49 | 1009.4 |
| 20260509211542 | 30 | 122 | 4.8 | 12.9 | 0.00 | 0.03 | 0.03 | 49 | 1009.5 |
| 20260509210036 | 29 | 275 | 6.4 | 12.9 | 0.00 | 0.03 | 0.03 | 51 | 1009.8 |
| 20260509204542 | 29 | 166 | 4.8 | 16.1 | 0.00 | 0.03 | 0.03 | 51 | 1010.3 |
| 20260509203037 | 29 | 201 | 3.2 | 11.3 | 0.00 | 0.03 | 0.03 | 52 | 1010.4 |
| 20260509201535 | 28 | 278 | 4.8 | 14.5 | 0.00 | 0.03 | 0.03 | 52 | 1010.7 |
| 20260509200041 | 28 | 221 | 4.8 | 11.3 | 0.00 | 0.03 | 0.03 | 56 | 1010.9 |
| 20260509194541 | 29 | 216 | 3.2 | 8.0 | 0.00 | 0.03 | 0.03 | 58 | 1011.1 |
| 20260509193041 | 28 | 218 | 8.0 | 14.5 | 0.00 | 0.03 | 0.03 | 58 | 1011.3 |
| 20260509191533 | 28 | 226 | 6.4 | 14.5 | 0.00 | 0.03 | 0.03 | 58 | 1011.4 |
| 20260509190032 | 28 | 221 | 6.4 | 11.3 | 0.00 | 0.03 | 0.03 | 62 | 1011.4 |
| 20260509184539 | 27 | 160 | 6.4 | 14.5 | 0.00 | 0.03 | 0.03 | 58 | 1011.5 |
| 20260509183036 | 27 | 238 | 9.7 | 16.1 | 0.00 | 0.03 | 0.03 | 61 | 1011.6 |
| 20260509181536 | 27 | 181 | 6.4 | 12.9 | 0.00 | 0.03 | 0.03 | 63 | 1011.9 |
| 20260509180033 | 27 | 273 | 3.2 | 12.9 | 0.00 | 0.03 | 0.03 | 68 | 1012.0 |
| 20260509174536 | 26 | 210 | 3.2 | 12.9 | 0.00 | 0.03 | 0.03 | 67 | 1012.2 |
| 20260509173043 | 26 | 223 | 6.4 | 14.5 | 0.00 | 0.03 | 0.03 | 67 | 1012.4 |
| 20260509171538 | 26 | 302 | 3.2 | 11.3 | 0.00 | 0.03 | 0.03 | 70 | 1012.4 |
| 20260509170040 | 26 | 184 | 4.8 | 16.1 | 0.00 | 0.03 | 0.03 | 73 | 1012.5 |
| 20260509164535 | 25 | 293 | 1.6 | 9.7 | 0.00 | 0.03 | 0.03 | 73 | 1012.7 |
| 20260509163039 | 25 | 282 | 1.6 | 8.0 | 0.00 | 0.03 | 0.03 | 75 | 1012.8 |
| 20260509161537 | 25 | 227 | 0.0 | 6.4 | 0.00 | 0.03 | 0.03 | 76 | 1012.9 |
| 20260509160036 | 24 | 97 | 4.8 | 8.0 | 0.00 | 0.03 | 0.03 | 79 | 1012.8 |
| 20260509154535 | 23 | 203 | 3.2 | 9.7 | 0.00 | 0.03 | 0.03 | 78 | 1012.7 |
| 20260509153034 | 23 | 309 | 1.6 | 9.7 | 0.00 | 0.03 | 0.03 | 82 | 1012.3 |
| 20260509151534 | 22 | 197 | 1.6 | 8.0 | 0.00 | 0.03 | 0.03 | 84 | 1012.3 |
| 20260509150033 | 22 | 238 | 4.8 | 8.0 | 0.00 | 0.03 | 0.03 | 83 | 1012.2 |
| 20260509144546 | 21 | 314 | 3.2 | 9.7 | 0.00 | 0.03 | 0.03 | 86 | 1012.3 |
| 20260509143040 | 21 | 229 | 6.4 | 14.5 | 0.00 | 0.03 | 0.03 | 87 | 1012.0 |
| 20260509141538 | 20 | 216 | 4.8 | 9.7 | 0.00 | 0.03 | 0.03 | 87 | 1012.2 |
| 20260509140056 | 21 | 248 | 1.6 | 9.7 | 0.00 | 0.03 | 0.03 | 85 | 1012.1 |
| 20260509134534 | 20 | 246 | 3.2 | 6.4 | 0.00 | 0.03 | 0.03 | 90 | 1012.1 |
| 20260509133038 | 20 | 228 | 3.2 | 8.0 | 0.00 | 0.03 | 0.03 | 89 | 1012.1 |
| 20260509131542 | 20 | 217 | 1.6 | 6.4 | 0.00 | 0.03 | 0.03 | 88 | 1011.8 |
| 20260509130034 | 20 | 252 | 3.2 | 4.8 | 0.00 | 0.03 | 0.03 | 89 | 1011.7 |
| 20260509124536 | 19 | 293 | 3.2 | 8.0 | 0.00 | 0.03 | 0.03 | 92 | 1011.7 |
| 20260509123035 | 18 | 275 | 3.2 | 8.0 | 0.00 | 0.03 | 0.03 | 95 | 1011.9 |
| 20260509121548 | 17 | 326 | 1.6 | 8.0 | 0.00 | 0.03 | 0.03 | 96 | 1011.8 |
| 20260509120037 | 17 | 210 | 6.4 | 11.3 | 0.00 | 0.03 | 0.03 | 96 | 1011.3 |
| 20260509114534 | 17 | 208 | 4.8 | 12.9 | 0.00 | 0.03 | 0.03 | 96 | 1011.5 |
| 20260509113035 | 17 | 153 | 12.9 | 16.1 | 0.00 | 0.03 | 0.03 | 96 | 1011.7 |
| 20260509111535 | 17 | 130 | 11.3 | 16.1 | 0.00 | 0.03 | 0.03 | 96 | 1012.3 |
| 20260509110038 | 17 | 92 | 11.3 | 19.3 | 0.00 | 0.03 | 0.03 | 96 | 1012.4 |
| 20260509104535 | 17 | 37 | 8.0 | 14.5 | 0.00 | 0.03 | 0.03 | 96 | 1012.8 |
| 20260509103103 | 16 | 69 | 3.2 | 4.8 | 0.00 | 0.03 | 0.03 | 96 | 1012.2 |
| 20260509101533 | 16 | 139 | 1.6 | 3.2 | 0.00 | 0.03 | 0.03 | 95 | 1012.2 |
| 20260509100034 | 17 | 35 | 0.0 | 3.2 | 0.00 | 0.03 | 0.03 | 96 | 1012.3 |
| 20260509094537 | 17 | 326 | 4.8 | 8.0 | 0.03 | 0.03 | 0.03 | 96 | 1012.4 |
| 20260509093035 | 17 | 316 | 3.2 | 9.7 | 0.03 | 0.03 | 0.03 | 96 | 1012.3 |
| 20260509091535 | 17 | 17 | 8.0 | 12.9 | 0.03 | 0.03 | 0.03 | 96 | 1012.4 |
| 20260509090035 | 17 | 335 | 11.3 | 19.3 | 0.00 | 0.00 | 0.00 | 96 | 1012.1 |
| 20260509084542 | 17 | 226 | 0.0 | 9.7 | 0.00 | 0.00 | 0.00 | 96 | 1010.9 |
| 20260509083046 | 17 | 163 | 4.8 | 9.7 | 0.00 | 0.00 | 0.00 | 95 | 1010.8 |
| 20260509081533 | 17 | 195 | 4.8 | 6.4 | 0.00 | 0.00 | 0.00 | 95 | 1011.0 |
| 20260509080033 | 17 | 211 | 3.2 | 6.4 | 0.00 | 0.00 | 0.00 | 95 | 1011.1 |
| 20260509074534 | 17 | 129 | 1.6 | 4.8 | 0.00 | 0.00 | 0.00 | 94 | 1011.2 |
| 20260509073044 | 17 | 203 | 3.2 | 8.0 | 0.00 | 0.00 | 0.00 | 95 | 1011.3 |